Flag for Austria Weather past 2 weeks in Gmünd, Lower Austria, Austria

Now
38 °F

Chilly.


Feels Like: 38 °F
Forecast: 21 / 43 °F
Wind: 2 mph from Southwest

Location: Retz

Current Time: Feb 28, 2015 at 2:35:49 AM

Latest Report: Feb 28, 2015 at 1:00 AM


Visibility: N/A

Pressure: 30.04 "Hg

Humidity: 87%

Dew point: 35 °F

Location of GmündLocation

Historic Weather in Gmünd — Graph

°F

Gmünd temperature yesterday

Maximum temperature yesterday: 45 °F (at 4:00 PM)
Minimum temperature yesterday: 36 °F (at 7:00 AM)
Average temperature yesterday: 40 °F

Past Weeks' High & Low Weather Summary

 TemperatureHumidityPressure
High46 °F (Feb 16, 2:00 PM)100% (Feb 20, 10:00 AM)30.78 "Hg (Feb 20, 10:00 AM)
Low26 °F (Feb 20, 6:00 AM)51% (Feb 21, 4:00 PM)29.56 "Hg (Feb 23, 4:00 PM)
Average36 °F82%30.09 "Hg
* Reported Feb 13 1:00 AM — Feb 28 1:00 AM, Gmünd, Weather by CustomWeather, © 2015

Note: Actual official high and low records may vary slightly from our data, if they occured in-between our weather recording intervals... More about our weather records

Advertising

Gmünd weather history for previous 24 hours

 ConditionsComfort  
Time TempWeatherWind HumidityBarometerVisibility
1:00 AM
Sat, Feb 28
38 °FChilly.2 mph87%30.04 "HgN/A
12:00 AM39 °FChilly.2 mph85%30.03 "HgN/A
11:00 PM
Fri, Feb 27
40 °FChilly.1 mph84%30.02 "HgN/A
9:00 PM41 °FQuite cool.2 mph83%29.99 "HgN/A
8:00 PM42 °FQuite cool.2 mph84%29.97 "HgN/A
7:00 PM43 °FQuite cool.2 mph78%29.95 "HgN/A
6:00 PM44 °FQuite cool.3 mph77%29.92 "HgN/A
5:00 PM45 °FQuite cool.2 mph73%29.90 "HgN/A
4:00 PM45 °FQuite cool.5 mph74%29.88 "HgN/A
3:00 PM45 °FQuite cool.3 mph71%29.88 "HgN/A
2:00 PM44 °FQuite cool.3 mph73%29.88 "HgN/A
1:00 PM43 °FOvercast.3 mph75%29.90 "Hg8 mi
12:00 PM41 °FQuite cool.3 mph81%29.92 "HgN/A
11:00 AM38 °FChilly.5 mph85%29.93 "HgN/A
10:00 AM37 °FChilly.3 mph89%29.94 "HgN/A
9:00 AM37 °FChilly.1 mph91%29.94 "HgN/A
8:00 AM36 °FChilly.1 mph93%29.96 "HgN/A
7:00 AM36 °FFog.1 mph92%29.95 "Hg2 mi
6:00 AM37 °FChilly.No wind91%29.95 "HgN/A
5:00 AM37 °FChilly.1 mph91%29.96 "HgN/A
2:00 AM37 °FChilly.1 mph87%30.01 "HgN/A
Weather by CustomWeather, © 2015

See weather overviewHow to use our weather pages